FW9555 Weather Reports


Display with metric or nautical units.
time (UTC)temp
F
wind
direction
speed
MPH
gust
MPH
rain 1hr
in
rain 24hr
in
rain mn
in
humidity
%
barometer
mb
20260904204130 103 286 0.0 1.0 0.00 0.00 0.00 51 1017.3
20260904203626 98 81 0.0 0.0 0.00 0.00 0.00 53 1017.4
20260904203122 96 81 0.0 2.0 0.00 0.00 0.00 54 1017.2
20260904202618 97 81 0.0 1.0 0.00 0.00 0.00 53 1017.3
20260904202115 99 290 0.0 0.0 0.00 0.00 0.00 53 1017.5
20260904201614 101 270 0.0 2.0 0.00 0.00 0.00 54 1017.3
20260904201109 97 99 0.0 1.0 0.00 0.00 0.00 53 1017.5
20260904200609 98 264 0.0 3.0 0.00 0.00 0.00 52 1017.5
20260904200104 99 291 0.0 1.0 0.00 0.00 0.00 55 1017.5
20260904195602 99 328 0.0 2.0 0.00 0.00 0.00 53 1017.4
20260904195102 99 285 0.0 0.0 0.00 0.00 0.00 55 1017.6
20260904194556 98 320 0.0 2.0 0.00 0.00 0.00 55 1017.8
20260904194051 97 355 0.0 3.0 0.00 0.00 0.00 51 1018.1
20260904193546 97 349 0.0 3.0 0.00 0.00 0.00 55 1018.2
20260904193042 96 345 0.0 0.0 0.00 0.00 0.00 54 1018.4
20260904192541 96 290 3.0 3.0 0.00 0.00 0.00 55 1018.4
20260904192037 96 339 0.0 4.0 0.00 0.00 0.00 53 1018.4
20260904191534 96 270 2.0 3.0 0.00 0.00 0.00 54 1018.6
20260904191030 96 300 0.0 1.0 0.00 0.00 0.00 56 1018.6
20260904190525 96 315 2.0 5.0 0.00 0.00 0.00 54 1018.7
20260904190022 96 295 2.0 2.0 0.00 0.00 0.00 53 1018.9
20260904185518 96 11 2.0 2.0 0.00 0.00 0.00 56 1018.9
20260904185012 95 15 0.0 0.0 0.00 0.00 0.00 61 1019.0
20260904184507 94 15 0.0 0.0 0.00 0.00 0.00 66 1019.1
20260904184002 92 15 0.0 0.0 0.00 0.00 0.00 68 1019.2
20260904183456 90 15 0.0 0.0 0.00 0.00 0.00 71 1019.3
20260904182952 90 15 0.0 0.0 0.00 0.00 0.00 69 1019.2
20260904182448 91 15 0.0 0.0 0.00 0.00 0.00 67 1019.3
20260904181947 91 15 0.0 0.0 0.00 0.00 0.00 69 1019.2
20260904181443 91 15 0.0 0.0 0.00 0.00 0.00 67 1019.3
20260904180938 92 0 0.0 1.0 0.00 0.00 0.00 66 1019.4
20260904180433 92 0 0.0 2.0 0.00 0.00 0.00 60 1019.2
20260904175932 93 6 1.0 2.0 0.00 0.00 0.00 62 1019.3
20260904175432 95 59 2.0 2.0 0.00 0.00 0.00 61 1019.4
20260904174926 95 0 0.0 0.0 0.00 0.00 0.00 60 1019.4
20260904174421 96 277 0.0 2.0 0.00 0.00 0.00 66 1019.5
20260904173918 94 45 2.0 4.0 0.00 0.00 0.00 64 1019.5
20260904173412 95 270 3.0 4.0 0.00 0.00 0.00 61 1019.5
20260904172909 94 270 2.0 2.0 0.00 0.00 0.00 72 1019.7
20260904172408 94 319 2.0 2.0 0.00 0.00 0.00 67 1019.8
20260904171903 94 5 0.0 4.0 0.00 0.00 0.00 63 1019.7
20260904171358 94 343 2.0 2.0 0.00 0.00 0.00 64 1019.8
20260904170854 93 14 3.0 3.0 0.00 0.00 0.00 62 1020.1
20260904170349 93 292 4.0 4.0 0.00 0.00 0.00 63 1020.1
20260904165844 93 8 0.0 1.0 0.00 0.00 0.00 67 1020.0
20260904165343 92 280 3.0 5.0 0.00 0.00 0.00 63 1019.9
20260904164839 94 215 1.0 2.0 0.00 0.00 0.00 64 1019.9
20260904164338 93 81 0.0 0.0 0.00 0.00 0.00 67 1020.0
20260904163835 92 348 0.0 3.0 0.00 0.00 0.00 67 1020.0
20260904163334 93 0 3.0 3.0 0.00 0.00 0.00 69 1020.3
20260904162833 93 319 0.0 3.0 0.00 0.00 0.00 72 1020.4
20260904162329 93 279 0.0 2.0 0.00 0.00 0.00 73 1020.4
20260904161825 92 186 1.0 2.0 0.00 0.00 0.00 69 1020.5
20260904161325 92 0 2.0 2.0 0.00 0.00 0.00 69 1020.5
20260904160820 92 90 0.0 1.0 0.00 0.00 0.00 73 1020.8
20260904160320 91 29 0.0 1.0 0.00 0.00 0.00 76 1020.9
20260904155815 91 29 0.0 2.0 0.00 0.00 0.00 72 1020.9
20260904155310 92 75 0.0 1.0 0.00 0.00 0.00 73 1020.9
20260904154809 92 352 0.0 1.0 0.00 0.00 0.00 75 1020.7
20260904154304 91 40 0.0 0.0 0.00 0.00 0.00 76 1020.8
20260904153759 90 7 0.0 1.0 0.00 0.00 0.00 76 1020.9
20260904153254 90 302 4.0 4.0 0.00 0.00 0.00 76 1020.9
20260904152751 89 75 1.0 2.0 0.00 0.00 0.00 75 1021.0
20260904152245 90 173 0.0 1.0 0.00 0.00 0.00 74 1021.1
20260904151740 88 74 0.0 2.0 0.00 0.00 0.00 76 1021.0
20260904151239 88 81 0.0 1.0 0.00 0.00 0.00 77 1021.1
20260904150736 86 8 0.0 2.0 0.00 0.00 0.00 77 1021.0
20260904150230 85 29 0.0 2.0 0.00 0.00 0.00 80 1020.8
20260904145728 85 287 0.0 5.0 0.00 0.00 0.00 81 1021.1
20260904145224 85 279 0.0 1.0 0.00 0.00 0.00 81 1021.1
20260904144719 85 246 0.0 2.0 0.00 0.00 0.00 80 1021.1
20260904144215 84 37 0.0 4.0 0.00 0.00 0.00 79 1021.2
20260904143711 84 5 2.0 3.0 0.00 0.00 0.00 80 1021.2
20260904143208 83 300 0.0 3.0 0.00 0.00 0.00 84 1021.0
20260904142704 83 63 0.0 4.0 0.00 0.00 0.00 83 1021.0
20260904142159 83 270 3.0 5.0 0.00 0.00 0.00 83 1020.9
20260904141659 82 282 2.0 5.0 0.00 0.00 0.00 84 1020.9
20260904141155 82 276 0.0 5.0 0.00 0.00 0.00 86 1020.9
20260904140650 81 0 0.0 1.0 0.00 0.00 0.00 88 1020.8
20260904140145 81 337 2.0 2.0 0.00 0.00 0.00 87 1020.9
20260904135644 80 270 2.0 3.0 0.00 0.00 0.00 88 1020.9
20260904135140 80 279 0.0 1.0 0.00 0.00 0.00 90 1020.9
20260904134636 80 352 0.0 1.0 0.00 0.00 0.00 90 1020.9
20260904134135 80 277 4.0 4.0 0.00 0.00 0.00 89 1020.9
20260904133630 79 354 0.0 2.0 0.00 0.00 0.00 92 1020.9
20260904133126 79 342 3.0 3.0 0.00 0.00 0.00 92 1020.9
20260904132620 78 270 0.0 0.0 0.00 0.00 0.00 93 1020.9
20260904132115 78 325 0.0 1.0 0.00 0.00 0.00 92 1020.7
20260904131614 78 303 0.0 2.0 0.00 0.00 0.00 93 1020.8
20260904131110 78 352 0.0 2.0 0.00 0.00 0.00 93 1020.8
20260904130609 77 81 0.0 1.0 0.00 0.00 0.00 94 1020.8
20260904130104 77 337 1.0 2.0 0.00 0.00 0.00 95 1020.8
20260904125601 77 78 0.0 2.0 0.00 0.00 0.00 97 1021.0
20260904125101 76 180 0.0 1.0 0.00 0.00 0.00 99 1020.9
20260904124556 75 349 2.0 2.0 0.00 0.00 0.00 99 1021.2
20260904124051 75 344 3.0 3.0 0.00 0.00 0.00 99 1021.0
20260904123546 75 315 0.0 2.0 0.00 0.00 0.00 99 1021.0
20260904123042 75 0 0.0 0.0 0.00 0.00 0.00 99 1020.9
20260904122542 75 66 0.0 1.0 0.00 0.00 0.00 99 1020.8
20260904122036 74 337 0.0 0.0 0.00 0.00 0.00 99 1020.6
20260904121532 74 15 0.0 0.0 0.00 0.00 0.00 99 1020.7
20260904121028 74 15 0.0 0.0 0.00 0.00 0.00 99 1020.7
20260904120524 74 15 0.0 0.0 0.00 0.00 0.00 99 1021.0
20260904120020 73 0 0.0 0.0 0.00 0.00 0.00 99 1020.9
20260904115515 73 345 0.0 0.0 0.00 0.00 0.00 99 1021.0
20260904115014 73 345 0.0 0.0 0.00 0.00 0.00 99 1020.9
20260904114510 73 345 0.0 0.0 0.00 0.00 0.00 99 1021.0
20260904114005 73 345 0.0 0.0 0.00 0.00 0.00 99 1021.1
20260904113504 72 345 0.0 0.0 0.00 0.00 0.00 99 1020.9
20260904112957 73 345 0.0 0.0 0.00 0.00 0.00 99 1020.8
20260904112453 72 345 0.0 0.0 0.00 0.00 0.00 99 1020.7
20260904111949 72 345 0.0 0.0 0.00 0.00 0.00 99 1020.8
20260904111444 72 345 0.0 0.0 0.00 0.00 0.00 99 1020.5
20260904110941 72 345 0.0 0.0 0.00 0.00 0.00 99 1020.8
20260904110439 72 345 0.0 0.0 0.00 0.00 0.00 99 1020.6
20260904105934 72 345 0.0 0.0 0.00 0.00 0.00 99 1020.6
20260904105429 73 279 0.0 0.0 0.00 0.00 0.00 99 1020.6
20260904104925 73 279 0.0 0.0 0.00 0.00 0.00 99 1020.1
20260904104425 72 279 0.0 0.0 0.00 0.00 0.00 99 1020.1
20260904103921 72 279 0.0 0.0 0.00 0.00 0.00 99 1020.5
20260904103416 73 279 0.0 0.0 0.00 0.00 0.00 99 1020.4
20260904102912 72 279 0.0 0.0 0.00 0.00 0.00 99 1020.1
20260904102407 72 279 0.0 0.0 0.00 0.00 0.00 99 1020.3
20260904101903 73 57 0.0 0.0 0.00 0.00 0.00 99 1019.9
20260904101359 72 331 0.0 0.0 0.00 0.00 0.00 99 1020.4
20260904100854 72 331 0.0 0.0 0.00 0.00 0.00 99 1020.0
20260904100351 73 331 0.0 0.0 0.00 0.00 0.00 99 1019.9
20260904095845 72 331 0.0 0.0 0.00 0.00 0.00 99 1019.8
20260904095340 72 270 0.0 0.0 0.00 0.00 0.00 99 1019.8
20260904094835 72 286 0.0 0.0 0.00 0.00 0.00 99 1020.0
20260904094330 72 90 0.0 0.0 0.00 0.00 0.00 99 1019.9
20260904093827 73 90 0.0 0.0 0.00 0.00 0.00 99 1020.0
20260904093326 72 279 0.0 0.0 0.00 0.00 0.00 99 1019.9
20260904092822 73 21 0.0 0.0 0.00 0.00 0.00 99 1019.8
20260904092318 73 21 0.0 0.0 0.00 0.00 0.00 99 1019.9
20260904091815 72 345 0.0 0.0 0.00 0.00 0.00 99 1019.9
20260904091314 72 90 0.0 0.0 0.00 0.00 0.00 99 1019.8
20260904090809 73 90 0.0 0.0 0.00 0.00 0.00 99 1019.9
20260904090306 73 90 0.0 1.0 0.00 0.00 0.00 99 1019.9
20260904085801 73 90 0.0 0.0 0.00 0.00 0.00 99 1020.0
20260904085255 73 90 0.0 0.0 0.00 0.00 0.00 99 1019.8
20260904084750 73 90 0.0 2.0 0.00 0.00 0.00 99 1019.7
20260904084246 73 286 0.0 0.0 0.00 0.00 0.00 99 1019.9
20260904083743 73 81 0.0 0.0 0.00 0.00 0.00 99 1019.8
20260904083239 73 81 0.0 0.0 0.00 0.00 0.00 99 1019.8
20260904082739 73 81 0.0 0.0 0.00 0.00 0.00 99 1019.6
20260904082234 73 81 0.0 0.0 0.00 0.00 0.00 99 1019.7
20260904081729 73 81 0.0 0.0 0.00 0.00 0.00 99 1019.7
20260904081225 73 54 0.0 1.0 0.00 0.00 0.00 99 1019.6
20260904080721 73 353 0.0 0.0 0.00 0.00 0.00 99 1019.7
20260904080216 73 353 0.0 0.0 0.00 0.00 0.00 99 1020.0
20260904075713 73 8 0.0 0.0 0.00 0.00 0.00 99 1019.6
20260904075207 73 15 0.0 0.0 0.00 0.00 0.00 99 1019.9
20260904074706 73 15 0.0 0.0 0.00 0.00 0.00 99 1019.8
20260904074200 73 15 0.0 0.0 0.00 0.00 0.00 99 1020.0
20260904073656 73 15 0.0 0.0 0.00 0.00 0.00 99 1019.9
20260904073152 74 15 0.0 0.0 0.00 0.00 0.00 99 1019.8
20260904072648 74 15 0.0 0.0 0.00 0.00 0.00 99 1019.9
20260904072142 74 15 0.0 1.0 0.00 0.00 0.00 99 1019.9
20260904071638 74 8 0.0 0.0 0.00 0.00 0.00 99 1020.0
20260904071132 74 68 0.0 0.0 0.00 0.00 0.00 99 1019.6
20260904070632 74 68 0.0 0.0 0.00 0.00 0.00 99 1019.9
20260904070126 74 68 0.0 0.0 0.00 0.00 0.00 99 1020.0
20260904065626 74 68 0.0 0.0 0.00 0.00 0.00 99 1020.0
20260904065123 74 68 0.0 0.0 0.00 0.00 0.00 99 1019.8
20260904064618 74 68 0.0 0.0 0.00 0.00 0.00 99 1019.9
20260904064113 74 68 0.0 0.0 0.00 0.00 0.00 99 1020.4
20260904063609 74 68 0.0 2.0 0.00 0.00 0.00 99 1020.4
20260904063104 74 270 0.0 0.0 0.00 0.00 0.00 99 1020.3
20260904062601 74 270 0.0 0.0 0.00 0.00 0.00 99 1020.4
20260904062056 74 270 0.0 0.0 0.00 0.00 0.00 99 1020.3
20260904061551 74 270 0.0 0.0 0.00 0.00 0.00 99 1020.5
20260904061048 75 270 0.0 0.0 0.00 0.00 0.00 99 1020.4
20260904060544 75 270 0.0 0.0 0.00 0.00 0.00 99 1020.4
20260904060039 75 270 0.0 0.0 0.00 0.00 0.00 99 1020.4
20260904055534 74 0 0.0 0.0 0.00 0.00 0.00 99 1020.7
20260904055030 75 337 0.0 1.0 0.00 0.00 0.00 99 1020.7
20260904054526 75 300 0.0 0.0 0.00 0.00 0.00 99 1020.4
20260904054021 75 300 0.0 0.0 0.00 0.00 0.00 99 1020.8
20260904053521 75 279 0.0 0.0 0.00 0.00 0.00 99 1020.6
20260904053016 75 0 0.0 0.0 0.00 0.00 0.00 99 1020.6
20260904052512 75 0 0.0 0.0 0.00 0.00 0.00 99 1020.6
20260904052008 75 0 0.0 0.0 0.00 0.00 0.00 99 1020.8
20260904051505 75 90 0.0 0.0 0.00 0.00 0.00 99 1020.6
20260904051003 75 90 0.0 0.0 0.00 0.00 0.00 99 1020.7
20260904050500 75 90 0.0 0.0 0.00 0.00 0.00 99 1020.7
20260904045955 75 90 0.0 1.0 0.00 0.00 0.00 99 1020.7
20260904045450 75 353 0.0 0.0 0.00 0.00 0.00 99 1020.8
20260904044944 75 353 0.0 0.0 0.00 0.00 0.00 99 1020.7
20260904044441 75 353 0.0 0.0 0.00 0.00 0.00 98 1020.9
20260904043937 76 353 0.0 0.0 0.00 0.00 0.00 99 1020.7
20260904043433 76 81 0.0 0.0 0.00 0.00 0.00 98 1020.7
20260904042928 76 81 0.0 0.0 0.00 0.00 0.00 98 1020.8
20260904042424 76 81 0.0 0.0 0.00 0.00 0.00 98 1020.7
20260904041919 76 81 0.0 0.0 0.00 0.00 0.00 98 1020.6
20260904041416 76 81 0.0 0.0 0.00 0.00 0.00 97 1020.6
20260904040912 77 0 0.0 0.0 0.00 0.00 0.00 97 1020.6
20260904040406 77 0 0.0 0.0 0.00 0.00 0.00 97 1020.7
20260904035902 77 0 0.0 0.0 0.00 0.00 0.00 97 1020.7
20260904035358 77 0 0.0 0.0 0.00 0.00 0.00 96 1020.7
20260904034857 77 270 0.0 0.0 0.00 0.00 0.00 96 1020.6
20260904034353 77 270 0.0 0.0 0.00 0.00 0.00 96 1020.7
20260904033848 77 270 0.0 0.0 0.00 0.00 0.00 96 1020.6
20260904033344 77 270 0.0 0.0 0.00 0.00 0.00 96 1020.6
20260904032841 77 270 0.0 0.0 0.00 0.00 0.00 96 1020.8
20260904032341 77 270 0.0 1.0 0.00 0.00 0.00 95 1020.8
20260904031834 77 270 0.0 0.0 0.00 0.00 0.00 95 1020.8
20260904031330 77 270 0.0 0.0 0.00 0.00 0.00 94 1020.6
20260904030826 77 270 0.0 0.0 0.00 0.00 0.00 94 1020.6
20260904030321 78 270 0.0 0.0 0.00 0.00 0.00 94 1020.6
20260904025817 78 270 0.0 0.0 0.00 0.00 0.00 94 1020.7
20260904025313 78 270 0.0 0.0 0.00 0.00 0.00 94 1020.6
20260904024813 78 270 0.0 0.0 0.00 0.00 0.00 94 1020.7
20260904024308 78 270 0.0 0.0 0.00 0.00 0.00 93 1020.8
20260904023805 78 270 0.0 0.0 0.00 0.00 0.00 93 1020.8
20260904023300 78 270 0.0 0.0 0.00 0.00 0.00 93 1020.9
20260904022759 78 270 0.0 0.0 0.00 0.00 0.00 93 1021.0
20260904022256 78 270 0.0 0.0 0.00 0.00 0.00 92 1020.8
20260904021752 79 270 0.0 0.0 0.00 0.00 0.00 93 1020.9
20260904021247 78 270 0.0 0.0 0.00 0.00 0.00 92 1021.0
20260904020743 79 270 0.0 0.0 0.00 0.00 0.00 92 1020.8
20260904020242 79 270 0.0 0.0 0.00 0.00 0.00 91 1021.0
20260904015741 79 270 0.0 0.0 0.00 0.00 0.00 92 1020.7
20260904015237 79 270 0.0 0.0 0.00 0.00 0.00 91 1020.6
20260904014735 79 270 0.0 0.0 0.00 0.00 0.00 91 1020.7
20260904014230 80 270 0.0 0.0 0.00 0.00 0.00 91 1020.6
20260904013726 80 270 0.0 0.0 0.00 0.00 0.00 91 1020.6
20260904013222 80 270 0.0 0.0 0.00 0.00 0.00 91 1020.4
20260904012718 80 270 0.0 0.0 0.00 0.00 0.00 91 1020.5
20260904012217 80 270 0.0 0.0 0.00 0.00 0.00 91 1020.3
20260904011716 80 270 0.0 0.0 0.00 0.00 0.00 90 1020.1
20260904011212 80 270 0.0 0.0 0.00 0.00 0.00 89 1020.0
20260904010707 80 270 0.0 0.0 0.00 0.00 0.00 89 1020.0
20260904010204 80 270 0.0 0.0 0.00 0.00 0.00 90 1020.0
20260904005659 81 270 0.0 0.0 0.00 0.00 0.00 89 1019.7
20260904005154 81 270 0.0 0.0 0.00 0.00 0.00 88 1019.8
20260904004644 81 270 0.0 0.0 0.00 0.00 0.00 88 1019.8
20260904004143 81 270 0.0 0.0 0.00 0.00 0.00 88 1019.5
20260904003639 82 270 0.0 0.0 0.00 0.00 0.00 87 1019.5
20260904003136 82 270 0.0 0.0 0.00 0.00 0.00 86 1019.3
20260904002631 82 270 0.0 0.0 0.00 0.00 0.00 86 1019.5
20260904002132 82 270 0.0 0.0 0.00 0.00 0.00 86 1019.4
20260904001627 83 270 0.0 1.0 0.00 0.00 0.00 85 1019.3
20260904001125 83 279 0.0 0.0 0.00 0.00 0.00 84 1019.2
20260904000621 83 279 0.0 0.0 0.00 0.00 0.00 84 1019.0
20260904000117 84 279 0.0 0.0 0.00 0.00 0.00 84 1019.1
20260903235616 84 279 0.0 0.0 0.00 0.00 0.00 82 1019.1
20260903235113 84 279 0.0 0.0 0.00 0.00 0.00 81 1019.0
20260903234607 85 279 0.0 0.0 0.00 0.00 0.00 81 1019.0
20260903234103 85 279 0.0 0.0 0.00 0.00 0.00 80 1019.0
20260903233559 86 279 0.0 0.0 0.00 0.00 0.00 80 1018.9
20260903233054 86 279 0.0 0.0 0.00 0.00 0.00 79 1018.7
20260903232549 86 279 0.0 0.0 0.00 0.00 0.00 78 1018.9
20260903232044 87 279 0.0 0.0 0.00 0.00 0.00 78 1018.5
20260903231539 87 279 0.0 0.0 0.00 0.00 0.00 77 1018.6
20260903231033 87 279 0.0 0.0 0.00 0.00 0.00 77 1019.0
20260903230530 88 279 0.0 0.0 0.00 0.00 0.00 75 1018.8
20260903230028 89 279 0.0 0.0 0.00 0.00 0.00 74 1019.0
20260903225526 89 279 0.0 0.0 0.00 0.00 0.00 73 1018.7
20260903225022 90 279 0.0 0.0 0.00 0.00 0.00 72 1018.7
20260903224518 88 279 0.0 0.0 0.00 0.00 0.00 74 1018.8
20260903224014 89 279 0.0 0.0 0.00 0.00 0.00 74 1019.1
20260903223513 89 279 0.0 0.0 0.00 0.00 0.00 72 1018.9
20260903223012 89 279 0.0 0.0 0.00 0.00 0.00 69 1018.8
20260903222507 90 279 0.0 0.0 0.00 0.00 0.00 68 1018.9
20260903222006 90 23 0.0 0.0 0.00 0.00 0.00 67 1018.8
20260903221501 91 23 0.0 0.0 0.00 0.00 0.00 66 1018.9
20260903220958 91 23 0.0 0.0 0.00 0.00 0.00 65 1018.9
20260903220453 92 23 0.0 0.0 0.00 0.00 0.00 64 1018.9
20260903215950 92 286 0.0 0.0 0.00 0.00 0.00 61 1019.1
20260903215447 95 286 0.0 0.0 0.00 0.00 0.00 62 1018.9
20260903214945 95 286 0.0 0.0 0.00 0.00 0.00 60 1018.9
20260903214441 96 286 0.0 0.0 0.00 0.00 0.00 55 1019.1
20260903213941 98 285 0.0 0.0 0.00 0.00 0.00 57 1018.9
20260903213436 99 285 0.0 0.0 0.00 0.00 0.00 54 1019.0
20260903212932 97 285 0.0 0.0 0.00 0.00 0.00 55 1018.9
20260903212428 98 285 0.0 0.0 0.00 0.00 0.00 52 1018.9
20260903211922 99 285 0.0 0.0 0.00 0.00 0.00 50 1018.8
20260903211418 103 285 0.0 0.0 0.00 0.00 0.00 49 1019.0
20260903210914 104 15 0.0 0.0 0.00 0.00 0.00 50 1019.1
20260903210413 101 340 0.0 1.0 0.00 0.00 0.00 45 1018.9
20260903205909 100 287 2.0 3.0 0.00 0.00 0.00 48 1018.9
20260903205408 99 354 1.0 2.0 0.00 0.00 0.00 49 1019.0
20260903204903 96 279 0.0 0.0 0.00 0.00 0.00 61 1019.1
20260903204359 95 279 0.0 0.0 0.00 0.00 0.00 61 1019.3